| time (UTC) | temp F | wind direction | speed MPH | gust MPH | rain 1hr in | rain 24hr in | rain mn in | humidity % | barometer mb |
| 20260502194211 | 72 | 204 | 2.0 | 3.0 | 0.00 | 0.00 | 0.00 | 12 | 1018.9 |
| 20260502193211 | 71 | 279 | 6.0 | 7.0 | 0.00 | 0.00 | 0.00 | 13 | 1018.9 |
| 20260502192210 | 72 | 281 | 2.0 | 6.0 | 0.00 | 0.00 | 0.00 | 14 | 1019.1 |
| 20260502191209 | 71 | 342 | 1.0 | 3.0 | 0.00 | 0.00 | 0.00 | 13 | 1019.3 |
| 20260502190208 | 70 | 182 | 2.0 | 3.0 | 0.00 | 0.00 | 0.00 | 17 | 1019.5 |
| 20260502185208 | 70 | 305 | 5.0 | 6.0 | 0.00 | 0.00 | 0.00 | 18 | 1019.6 |
| 20260502184207 | 69 | 260 | 0.0 | 0.0 | 0.00 | 0.00 | 0.00 | 18 | 1019.6 |
| 20260502183206 | 70 | 305 | 3.0 | 5.0 | 0.00 | 0.00 | 0.00 | 19 | 1019.8 |
| 20260502182205 | 69 | 253 | 0.0 | 7.0 | 0.00 | 0.00 | 0.00 | 19 | 1020.0 |
| 20260502181205 | 68 | 260 | 2.0 | 3.0 | 0.00 | 0.00 | 0.00 | 21 | 1020.1 |
| 20260502180204 | 68 | 282 | 1.0 | 7.0 | 0.00 | 0.00 | 0.00 | 22 | 1020.2 |
| 20260502170200 | 64 | 15 | 2.0 | 2.0 | 0.00 | 0.00 | 0.00 | 28 | 1020.6 |
| 20260502164158 | 63 | 305 | 3.0 | 5.0 | 0.00 | 0.00 | 0.00 | 30 | 1020.6 |
| 20260502163157 | 62 | 275 | 1.0 | 3.0 | 0.00 | 0.00 | 0.00 | 33 | 1020.6 |
| 20260502162157 | 61 | 271 | 2.0 | 3.0 | 0.00 | 0.00 | 0.00 | 34 | 1020.6 |
| 20260502161156 | 61 | 294 | 3.0 | 3.0 | 0.00 | 0.00 | 0.00 | 34 | 1020.6 |
| 20260502160155 | 61 | 280 | 1.0 | 3.0 | 0.00 | 0.00 | 0.00 | 35 | 1020.6 |
| 20260502152152 | 58 | 11 | 2.0 | 3.0 | 0.00 | 0.00 | 0.00 | 33 | 1020.6 |
| 20260502151151 | 57 | 304 | 2.0 | 3.0 | 0.00 | 0.00 | 0.00 | 34 | 1020.7 |
| 20260502150151 | 56 | 337 | 2.0 | 3.0 | 0.00 | 0.00 | 0.00 | 38 | 1020.7 |
| 20260502130140 | 46 | 52 | 0.0 | 1.0 | 0.00 | 0.00 | 0.00 | 52 | 1020.3 |
| 20260502123138 | 46 | 202 | 0.0 | 1.0 | 0.00 | 0.00 | 0.00 | 52 | 1020.1 |
| 20260502122137 | 47 | 162 | 0.0 | 1.0 | 0.00 | 0.00 | 0.00 | 48 | 1020.0 |
| 20260502121136 | 46 | 113 | 1.0 | 1.0 | 0.00 | 0.00 | 0.00 | 54 | 1020.1 |
| 20260502120135 | 46 | 133 | 1.0 | 2.0 | 0.00 | 0.00 | 0.00 | 54 | 1020.0 |
| 20260502115134 | 46 | 138 | 0.0 | 1.0 | 0.00 | 0.00 | 0.00 | 55 | 1020.1 |
| 20260502114133 | 47 | 191 | 0.0 | 1.0 | 0.00 | 0.00 | 0.00 | 54 | 1020.1 |
| 20260502113132 | 47 | 86 | 0.0 | 0.0 | 0.00 | 0.00 | 0.00 | 54 | 1020.1 |
| 20260502112131 | 46 | 90 | 0.0 | 0.0 | 0.00 | 0.00 | 0.00 | 54 | 1020.1 |
| 20260502111130 | 47 | 53 | 2.0 | 2.0 | 0.00 | 0.00 | 0.00 | 54 | 1020.1 |
| 20260502110130 | 47 | 274 | 0.0 | 0.0 | 0.00 | 0.00 | 0.00 | 54 | 1020.3 |
| 20260502105129 | 47 | 281 | 1.0 | 2.0 | 0.00 | 0.00 | 0.00 | 54 | 1020.3 |
| 20260502104128 | 48 | 96 | 2.0 | 3.0 | 0.00 | 0.00 | 0.00 | 51 | 1020.2 |
| 20260502103127 | 47 | 123 | 0.0 | 1.0 | 0.00 | 0.00 | 0.00 | 52 | 1020.2 |
| 20260502102126 | 47 | 131 | 1.0 | 1.0 | 0.00 | 0.00 | 0.00 | 53 | 1020.2 |
| 20260502101125 | 48 | 127 | 1.0 | 2.0 | 0.00 | 0.00 | 0.00 | 52 | 1020.0 |
| 20260502100124 | 48 | 138 | 1.0 | 2.0 | 0.00 | 0.00 | 0.00 | 52 | 1020.0 |
| 20260502091120 | 49 | 182 | 0.0 | 0.0 | 0.00 | 0.00 | 0.00 | 48 | 1019.9 |
| 20260502090119 | 49 | 248 | 0.0 | 1.0 | 0.00 | 0.00 | 0.00 | 50 | 1019.8 |
| 20260502071110 | 51 | 345 | 0.0 | 1.0 | 0.00 | 0.00 | 0.00 | 49 | 1019.9 |
| 20260502070109 | 51 | 77 | 0.0 | 0.0 | 0.00 | 0.00 | 0.00 | 48 | 1019.9 |
| 20260502065109 | 52 | 286 | 0.0 | 0.0 | 0.00 | 0.00 | 0.00 | 48 | 1019.9 |
| 20260502064108 | 52 | 242 | 0.0 | 1.0 | 0.00 | 0.00 | 0.00 | 45 | 1019.9 |
| 20260502063107 | 52 | 233 | 0.0 | 0.0 | 0.00 | 0.00 | 0.00 | 45 | 1019.8 |
| 20260502062106 | 52 | 237 | 0.0 | 0.0 | 0.00 | 0.00 | 0.00 | 46 | 1019.9 |
| 20260502061105 | 54 | 139 | 0.0 | 0.0 | 0.00 | 0.00 | 0.00 | 41 | 1019.9 |
| 20260502060104 | 55 | 162 | 1.0 | 2.0 | 0.00 | 0.00 | 0.00 | 41 | 1019.8 |
| 20260502055103 | 55 | 129 | 0.0 | 1.0 | 0.00 | 0.00 | 0.00 | 39 | 1019.8 |
| 20260502054102 | 55 | 118 | 2.0 | 2.0 | 0.00 | 0.00 | 0.00 | 41 | 1019.7 |
| 20260502053102 | 56 | 142 | 1.0 | 2.0 | 0.00 | 0.00 | 0.00 | 40 | 1019.8 |
| 20260502052101 | 56 | 137 | 2.0 | 3.0 | 0.00 | 0.00 | 0.00 | 39 | 1019.7 |
| 20260502051100 | 57 | 100 | 1.0 | 3.0 | 0.00 | 0.00 | 0.00 | 36 | 1019.6 |
| 20260502050059 | 57 | 107 | 1.0 | 2.0 | 0.00 | 0.00 | 0.00 | 36 | 1019.7 |
| 20260502045059 | 57 | 92 | 2.0 | 3.0 | 0.00 | 0.00 | 0.00 | 37 | 1019.7 |
| 20260502044058 | 57 | 83 | 1.0 | 3.0 | 0.00 | 0.00 | 0.00 | 38 | 1019.7 |
| 20260502043057 | 57 | 89 | 2.0 | 3.0 | 0.00 | 0.00 | 0.00 | 39 | 1019.7 |
| 20260502042056 | 57 | 88 | 2.0 | 3.0 | 0.00 | 0.00 | 0.00 | 43 | 1019.7 |
| 20260502041055 | 57 | 107 | 2.0 | 2.0 | 0.00 | 0.00 | 0.00 | 42 | 1019.6 |
| 20260502040055 | 58 | 132 | 1.0 | 2.0 | 0.00 | 0.00 | 0.00 | 41 | 1019.5 |
| 20260502035054 | 58 | 132 | 1.0 | 2.0 | 0.00 | 0.00 | 0.00 | 40 | 1019.4 |
| 20260502034053 | 58 | 91 | 1.0 | 2.0 | 0.00 | 0.00 | 0.00 | 39 | 1019.4 |
| 20260502033052 | 58 | 83 | 0.0 | 1.0 | 0.00 | 0.00 | 0.00 | 40 | 1019.2 |
| 20260502032051 | 59 | 75 | 0.0 | 0.0 | 0.00 | 0.00 | 0.00 | 40 | 1019.1 |
| 20260502031051 | 59 | 63 | 0.0 | 3.0 | 0.00 | 0.00 | 0.00 | 39 | 1018.9 |
| 20260502030050 | 60 | 91 | 1.0 | 2.0 | 0.00 | 0.00 | 0.00 | 38 | 1018.8 |
| 20260502025049 | 61 | 87 | 1.0 | 2.0 | 0.00 | 0.00 | 0.00 | 36 | 1018.8 |
| 20260502024048 | 61 | 0 | 1.0 | 1.0 | 0.00 | 0.00 | 0.00 | 35 | 1018.7 |
| 20260502023047 | 62 | 339 | 2.0 | 3.0 | 0.00 | 0.00 | 0.00 | 34 | 1018.7 |
| 20260502022047 | 62 | 8 | 3.0 | 5.0 | 0.00 | 0.00 | 0.00 | 33 | 1018.6 |
| 20260502021046 | 63 | 358 | 2.0 | 3.0 | 0.00 | 0.00 | 0.00 | 35 | 1018.6 |
| 20260502020045 | 64 | 39 | 3.0 | 6.0 | 0.00 | 0.00 | 0.00 | 35 | 1018.5 |
| 20260502015044 | 64 | 345 | 1.0 | 2.0 | 0.00 | 0.00 | 0.00 | 34 | 1018.4 |
| 20260502014043 | 64 | 293 | 7.0 | 8.0 | 0.00 | 0.00 | 0.00 | 32 | 1018.3 |
| 20260502013043 | 64 | 269 | 7.0 | 12.0 | 0.00 | 0.00 | 0.00 | 34 | 1018.3 |
| 20260502012042 | 65 | 276 | 8.0 | 12.0 | 0.00 | 0.00 | 0.00 | 33 | 1018.2 |
| 20260502011041 | 65 | 271 | 6.0 | 8.0 | 0.00 | 0.00 | 0.00 | 31 | 1018.2 |
| 20260502010041 | 65 | 284 | 8.0 | 10.0 | 0.00 | 0.00 | 0.00 | 33 | 1018.2 |
| 20260502005040 | 65 | 290 | 8.0 | 10.0 | 0.00 | 0.00 | 0.00 | 32 | 1018.1 |
| 20260502004039 | 65 | 286 | 10.0 | 12.0 | 0.00 | 0.00 | 0.00 | 32 | 1018.2 |
| 20260502003038 | 65 | 287 | 12.0 | 15.0 | 0.00 | 0.00 | 0.00 | 31 | 1018.2 |
| 20260502002038 | 65 | 285 | 10.0 | 14.0 | 0.00 | 0.00 | 0.00 | 30 | 1018.3 |
| 20260502001037 | 65 | 282 | 10.0 | 14.0 | 0.00 | 0.00 | 0.00 | 32 | 1018.3 |
| 20260502000036 | 65 | 286 | 10.0 | 13.0 | 0.00 | 0.00 | 0.00 | 32 | 1018.4 |
| 20260501235035 | 65 | 287 | 13.0 | 17.0 | 0.00 | 0.00 | 0.00 | 31 | 1018.5 |
| 20260501234035 | 65 | 290 | 9.0 | 12.0 | 0.00 | 0.00 | 0.00 | 31 | 1018.4 |
| 20260501233034 | 65 | 289 | 10.0 | 14.0 | 0.00 | 0.00 | 0.00 | 30 | 1018.5 |
| 20260501232033 | 66 | 280 | 9.0 | 16.0 | 0.00 | 0.00 | 0.00 | 31 | 1018.4 |
| 20260501231032 | 65 | 284 | 9.0 | 12.0 | 0.00 | 0.00 | 0.00 | 31 | 1018.6 |
| 20260501230031 | 65 | 286 | 12.0 | 12.0 | 0.00 | 0.00 | 0.00 | 30 | 1018.6 |
| 20260501225031 | 65 | 299 | 12.0 | 14.0 | 0.00 | 0.00 | 0.00 | 30 | 1018.7 |
| 20260501224030 | 65 | 273 | 13.0 | 15.0 | 0.00 | 0.00 | 0.00 | 32 | 1018.7 |
| 20260501223029 | 65 | 290 | 12.0 | 15.0 | 0.00 | 0.00 | 0.00 | 29 | 1018.9 |
| 20260501222029 | 65 | 285 | 8.0 | 12.0 | 0.00 | 0.00 | 0.00 | 31 | 1019.0 |
| 20260501221028 | 65 | 295 | 8.0 | 12.0 | 0.00 | 0.00 | 0.00 | 31 | 1019.1 |
| 20260501220028 | 65 | 303 | 12.0 | 14.0 | 0.00 | 0.00 | 0.00 | 30 | 1019.1 |
| 20260501215027 | 64 | 296 | 12.0 | 15.0 | 0.00 | 0.00 | 0.00 | 28 | 1019.3 |
| 20260501214026 | 64 | 301 | 10.0 | 14.0 | 0.00 | 0.00 | 0.00 | 28 | 1019.3 |
| 20260501213025 | 64 | 275 | 12.0 | 12.0 | 0.00 | 0.00 | 0.00 | 28 | 1019.3 |
| 20260501212025 | 64 | 299 | 13.0 | 16.0 | 0.00 | 0.00 | 0.00 | 28 | 1019.3 |
| 20260501211024 | 64 | 287 | 12.0 | 13.0 | 0.00 | 0.00 | 0.00 | 26 | 1019.4 |
| 20260501210023 | 64 | 288 | 12.0 | 15.0 | 0.00 | 0.00 | 0.00 | 29 | 1019.3 |
| 20260501205022 | 64 | 301 | 10.0 | 12.0 | 0.00 | 0.00 | 0.00 | 26 | 1019.3 |
| 20260501204022 | 64 | 294 | 9.0 | 10.0 | 0.00 | 0.00 | 0.00 | 26 | 1019.4 |
| 20260501203021 | 64 | 281 | 10.0 | 15.0 | 0.00 | 0.00 | 0.00 | 25 | 1019.3 |
| 20260501202020 | 64 | 295 | 9.0 | 12.0 | 0.00 | 0.00 | 0.00 | 24 | 1019.4 |
| 20260501201020 | 64 | 274 | 7.0 | 12.0 | 0.00 | 0.00 | 0.00 | 25 | 1019.4 |
| 20260501200019 | 63 | 301 | 8.0 | 12.0 | 0.00 | 0.00 | 0.00 | 24 | 1019.4 |
| 20260501195018 | 63 | 270 | 8.0 | 10.0 | 0.00 | 0.00 | 0.00 | 25 | 1019.5 |